Weather in Novokurovka

Russia / Khabarovsk Krai     48°51′01″N   134°18′39″E
temp.,
°C
wind,
m/s
gust,
m/s
humid.,
%
clouds,
%
prec.,
mm/h
press.,
hPa
HPBL,
m
20 january, thu
thu2001:00−27wsw1110084 0.1 102810
04:00−25w119998 0.1 102818
07:00−27nw1110074 0.1 10299
10:00−28wnw1110079 0.1 103011
13:00−21sw119582 0.0 1030138
16:00−20sw22955 0.0 103057
19:00−28sw22995 0.0 103211
22:00−31wsw1110023 0.0 103210
21 january, fri
fri2101:00−32sw1110052 0.0 103310
04:00−32wsw1110065 0.0 103311
07:00−34sw1110039 0.0 103413
10:00−32sw129953 0.0 103432
13:00−23sw239354 0.0 1034184
16:00−21ssw23935 0.0 1032167
19:00−29s2210011 0.0 103310
22:00−32s0110058 0.0 10339
22 january, sat
sat2201:00−33ese0010066 0.0 10339
04:00−34ese1110094 0.0 10339
07:00−35e0110097 0.0 10339
10:00−33sse0010099 0.0 103318
13:00−25sw129685 0.0 1032137
16:00−22ssw22947 0.0 1031126
19:00−30ssw1110024 0.0 10319
22:00−32w1110034 0.0 10319
23 january, sun
sun2301:00−34sw0010087 0.0 10319
04:00−34s00100100 0.0 10309
07:00−35ene0010099 0.0 10309
10:00−32s0010094 0.0 103024
13:00−25sw129586 0.0 1029147
16:00−22sw23949 0.0 1027161
19:00−29ssw221005 0.0 10279
22:00−31sw1110052 0.0 10279
24 january, mon
mon2401:00−33se0010091 0.0 10279
04:00−33ene1110099 0.0 10279
07:00−34ene1110096 0.0 10279
10:00−32e0010079 0.0 102820
13:00−24sw119352 0.0 1028135
16:00−22ssw12937 0.0 1027131
19:00−28s111005 0.0 10289
22:00−31ene0010050 0.0 10289